Weather History for Eagle Creek, IN

Change the Weather History Date:

Sunday, December 9, 2012

  Actual Average Record
Temperature  
Mean Temperature 47 °F 34 °F  
Max Temperature 53 °F 40 °F 64 °F (2008)
Min Temperature 40 °F 27 °F 8 °F (2010)
Degree Days  
Heating Degree Days 18 31  
Month to date heating degree days 152 268  
Since 1 July heating degree days 1370 1292  
Cooling Degree Days 0 0  
Month to date cooling degree days 0 0  
Year to date cooling degree days 1339 1058  
Moisture  
Dew Point 46 °F    
Average Humidity 93    
Maximum Humidity 100    
Minimum Humidity 86    
Precipitation  
Precipitation 0.42 in 0.08 in 1.11 in (2008)
Month to date precipitation 1.33 0.79  
Year to date precipitation 36.51 38.50  
Sea Level Pressure  
Sea Level Pressure 29.81 in    
Wind  
Wind Speed 7 mph (ESE)    
Max Wind Speed 20 mph    
Max Gust Speed 28 mph    
Visibility 4 miles    
Events Fog , Rain    
T = Trace of Precipitation, MM = Missing Value Source: NWS Daily Summary

Daily Weather History Graph

Daily Weather History Graph

Search for Another Location

Airport:

Trip Planner

Search our weather history database for the weather conditions in past years. The results will help you decide how hot, cold, wet, or windy it might be!

Date:

Astronomy

Dec. 09, 2012 Rise Set
Actual Time 7:55 AM EST 5:20 PM EST
Civil Twilight 7:24 AM EST 5:50 PM EST
Nautical Twilight 6:51 AM EST 6:24 PM EST
Astronomical Twilight 6:18 AM EST 6:57 PM EST
Moon 3:27 AM EST (12/9) 2:26 PM EST (12/9)
Length of Visible Light 10h 25m
Length of Day
9h 25m
Waning Crescent, 19% of the Moon is Illuminated
Dec 9
Waning Crescent
Dec 13
New
Dec 20
First Quarter
Dec 28
Full
Jan 4
Last Quarter

Hourly Weather History & Observations

Time (EST) Temp. Windchill Dew Point Humidity Pressure Visibility Wind Dir Wind Speed Gust Speed Precip Events Conditions
12:08 AM 39.2 °F 33.0 °F 39.2 °F 100% 30.02 in 3.0 mi ENE 9.2 mph - N/A   Overcast
12:37 AM 41.0 °F 34.7 °F 39.2 °F 93% 30.03 in 6.0 mi East 10.4 mph - N/A   Overcast
12:53 AM 41.0 °F 34.3 °F 39.0 °F 93% 30.04 in 6.0 mi East 11.5 mph - N/A   Overcast
1:53 AM 41.0 °F 35.8 °F 37.9 °F 89% 30.04 in 6.0 mi East 8.1 mph 18.4 mph N/A   Overcast
2:53 AM 41.0 °F 35.8 °F 39.0 °F 93% 30.03 in 6.0 mi East 8.1 mph - N/A   Overcast
3:53 AM 41.0 °F 37.1 °F 39.9 °F 96% 30.01 in 5.0 mi East 5.8 mph - N/A   Overcast
4:53 AM 41.0 °F 36.4 °F 39.9 °F 96% 29.99 in 3.0 mi East 6.9 mph - 0.02 in   Overcast
5:53 AM 41.0 °F 35.8 °F 39.9 °F 96% 29.96 in 3.0 mi ENE 8.1 mph - N/A   Overcast
6:53 AM 42.1 °F 36.6 °F 39.9 °F 92% 29.95 in 5.0 mi East 9.2 mph - N/A   Overcast
7:53 AM 42.1 °F 37.1 °F 39.9 °F 92% 29.94 in 6.0 mi East 8.1 mph - N/A   Overcast
8:49 AM 42.8 °F 37.5 °F 41.0 °F 93% 29.92 in 1.8 mi ESE 9.2 mph - N/A   Overcast
8:50 AM 43.0 °F 38.2 °F 41.0 °F 93% 29.93 in 1.8 mi East 8.1 mph - N/A   Overcast
9:53 AM 42.1 °F 37.1 °F 42.1 °F 100% 29.92 in 1.5 mi ENE 8.1 mph - 0.04 in Rain Light Rain
10:53 AM 43.0 °F 37.2 °F 42.1 °F 97% 29.89 in 1.5 mi East 10.4 mph - 0.27 in Rain Rain
11:07 AM 42.8 °F 37.5 °F 42.8 °F 100% 29.88 in 3.0 mi ESE 9.2 mph - 0.02 in Rain Light Rain
11:50 AM 44.6 °F 40.7 °F 42.8 °F 93% 29.86 in 2.5 mi ESE 6.9 mph - 0.02 in   Overcast
11:53 AM 44.1 °F 40.1 °F 43.0 °F 96% 29.87 in 2.5 mi ESE 6.9 mph - 0.02 in   Overcast
12:12 PM 44.6 °F 42.2 °F 44.6 °F 100% 29.85 in 1.5 mi ESE 4.6 mph - N/A   Overcast
12:46 PM 44.6 °F 42.2 °F 44.6 °F 100% 29.83 in 0.8 mi ESE 4.6 mph - 0.00 in   Overcast
12:53 PM 45.0 °F 42.6 °F 45.0 °F 100% 29.84 in 0.5 mi SE 4.6 mph - 0.00 in Fog , Rain Light Rain
1:08 PM 46.4 °F 43.5 °F 46.4 °F 100% 29.81 in 0.8 mi SE 5.8 mph - 0.02 in Rain Light Rain
1:16 PM 46.4 °F 42.9 °F 46.4 °F 100% 29.80 in 1.2 mi SE 6.9 mph - 0.02 in   Overcast
1:53 PM 46.9 °F - 46.9 °F 100% 29.79 in 1.0 mi SE 3.5 mph - 0.02 in   Overcast
2:04 PM 48.2 °F - 48.2 °F 100% 29.77 in 0.8 mi SE 4.6 mph - N/A   Overcast
2:53 PM 48.9 °F - 48.0 °F 97% 29.77 in 0.8 mi SE 3.5 mph - N/A   Overcast
3:06 PM 48.2 °F - 48.2 °F 100% 29.76 in 1.0 mi SSE 3.5 mph - N/A   Overcast
3:53 PM 51.1 °F - 51.1 °F 100% 29.77 in 1.2 mi Variable 4.6 mph - N/A   Overcast
4:53 PM 52.0 °F - 52.0 °F 100% 29.76 in 1.0 mi South 4.6 mph - 0.00 in   Overcast
5:14 PM 53.6 °F - 51.8 °F 94% 29.75 in 0.8 mi Calm Calm - N/A   Overcast
5:23 PM 53.6 °F - 51.8 °F 94% 29.75 in 1.5 mi South 3.5 mph - N/A   Overcast
5:32 PM 51.8 °F - 51.8 °F 100% 29.74 in 2.0 mi South 3.5 mph - 0.00 in Rain Light Rain
5:53 PM 53.1 °F - 53.1 °F 100% 29.74 in 3.0 mi South 3.5 mph - 0.01 in Rain Light Rain
6:06 PM 53.6 °F - 51.8 °F 94% 29.72 in 2.0 mi South 3.5 mph - 0.00 in   Overcast
6:53 PM 53.1 °F - 52.0 °F 96% 29.72 in 1.5 mi Calm Calm - 0.00 in   Overcast
7:05 PM 51.8 °F - 51.8 °F 100% 29.71 in 0.5 mi Calm Calm - N/A Fog Fog
7:38 PM 53.6 °F - 51.8 °F 94% 29.71 in 1.0 mi Calm Calm - 0.02 in Rain Light Rain
7:53 PM 52.0 °F - 52.0 °F 100% 29.71 in 0.5 mi NW 4.6 mph - 0.03 in Fog , Rain Light Rain
8:05 PM 51.8 °F - 51.8 °F 100% 29.69 in 1.0 mi NW 3.5 mph - 0.01 in Rain Light Rain
8:17 PM 51.8 °F - 50.0 °F 94% 29.69 in 3.0 mi NNW 6.9 mph - 0.01 in Rain Light Rain
8:31 PM 51.8 °F - 50.0 °F 94% 29.72 in 3.0 mi WNW 19.6 mph 27.6 mph 0.01 in Rain Light Rain
8:38 PM 50.0 °F - 50.0 °F 100% 29.71 in 2.5 mi NW 12.7 mph 27.6 mph 0.01 in Rain Light Rain
8:46 PM 50.0 °F - 48.2 °F 94% 29.70 in 8.0 mi NW 8.1 mph 19.6 mph 0.01 in Rain Light Rain
8:53 PM 50.0 °F - 48.9 °F 96% 29.70 in 10.0 mi NW 10.4 mph - 0.01 in Rain Light Rain
9:23 PM 50.0 °F - 48.2 °F 94% 29.69 in 2.5 mi NW 11.5 mph - N/A Rain Rain
9:31 PM 48.2 °F - 48.2 °F 100% 29.70 in 7.0 mi WNW 9.2 mph - N/A Rain Light Rain
9:53 PM 48.9 °F - 48.0 °F 97% 29.71 in 9.0 mi WNW 11.5 mph - N/A Rain Light Rain
10:00 PM 48.2 °F - 48.2 °F 100% 29.71 in 10.0 mi WNW 12.7 mph - N/A   Overcast
10:41 PM 48.2 °F - 46.4 °F 93% 29.70 in 10.0 mi WNW 9.2 mph - N/A   Overcast
10:53 PM 48.0 °F - 46.0 °F 93% 29.72 in 10.0 mi WNW 11.5 mph - N/A   Overcast
11:08 PM 48.2 °F - 46.4 °F 93% 29.71 in 10.0 mi WNW 9.2 mph - N/A   Overcast
11:22 PM 46.4 °F 41.1 °F 44.6 °F 93% 29.72 in 9.0 mi NW 11.5 mph - N/A   Overcast
11:53 PM 45.0 °F 37.9 °F 44.1 °F 97% 29.74 in 4.0 mi NW 16.1 mph 25.3 mph N/A   Overcast